Tracking 29892 objects as of 21-Nov-2024
HD Live streaming from Space Station
objects crossing your sky now

YAOGAN-36 03C

Track YAOGAN-36 03C now!
10-day predictions


NORAD ID: 54376
Int'l Code: 2022-160E
Perigee: 491.3 km
Apogee: 517.0 km
Inclination: 35.0 °
Period: 94.6 minutes
Semi major axis: 6875 km
RCS: Unknown
Launch date: November 27, 2022
Source: People's Republic of China (PRC)
Launch site: Xichang Space Center, China (XSC)
Your satellite tracking list
Your tracking list is empty




NASA's NSSDC Master Catalog

Two Line Element Set (TLE):
1 54376U 22160E   24326.16419204  .00008293  00000-0  34441-3 0  9991
2 54376  35.0069 342.8759 0018674 259.3630 100.4982 15.22937202110630
Source of the keplerian elements: AFSPC